Location: Hradec Kralove
(50.2170°N, 15.8330°E)
Time: 05:51:49
(UTC+02:00)

TIGRISAT - Pass Details

Date: 08 August 2024
Orbit: 591 x 667 km, 97.7° (Epoch: 19 September)

Event Time Altitude Azimuth Distance (km) Brightness Sun altitude
Rises 04:26:25 0° 162° (SSE) 2,940 ? -10.1°
Reaches altitude 10° 04:28:38 10° 162° (SSE) 2,023 ? -9.8°
Maximum altitude 04:33:03 82° 74° (ENE) 640 ? -9.3°
Drops below altitude 10° 04:37:23 10° 348° (NNW) 1,991 ? -8.7°
Sets 04:39:33 0° 348° (NNW) 2,889 ? -8.4°
